NICK1: Arkansas River nr Nickerson, KS

Data processed at Thu Jan 04 2018 23:11


All information presented herein is the property of the government of the United States of America and may be revised or deleted at any time without prior notice.
Dissemination of this information without the expressed written consent of the Public Affairs Office, Tulsa District U.S. Army Corps of Engineers is strictly prohibited.
These data are gathered electronically and, as presented, have not undergone any form of quality control. These data are not guaranteed to be valid or correct.
Go to home page.
Go to station list.

Upstream stations:

Downstream station:
Previous Day
Next Day
Current Day
    
SHEF ID:       NICK1     ARKANSAS R NR NICKERSON, KS
STATION TYPE:  

               PRECIP     STAGE  RIV-FLOW   CONDUCT  BAT-LOAD
                   in        ft       cfs   umho/cm      volt
              Ccp-Rev   Ccp-Rev   Ccp-Rev   Ccp-Rev   Ccp-Rev
(US/Central)
01/02 00:00      0.00      8.93        84    480890     12.09
01/02 01:00      0.00      8.94        85    480890     12.09
01/02 02:00      0.00      8.95        85    491566     12.09
01/02 03:00      0.00      8.95        85    494658     12.01
01/02 04:00      0.00      8.96        86    496233     12.01
01/02 05:00      0.00      8.96        86    477967     11.93
01/02 06:00      0.00      8.96        86    483876     11.93
01/02 07:00      0.00      8.96        86     23593     11.86
01/02 08:00      0.00      8.96        86    488426     11.86
01/02 09:00      0.00      8.96        86    507398     10.98
01/02 10:00      0.00      8.95        85    502488     11.93
01/02 11:00      0.00      8.95        85    499237     12.41
01/02 12:00      0.00      8.93        84    492800     13.21
01/02 13:00      0.00      8.95        85    499149     13.29
01/02 14:00      0.00      8.97        86    485298     13.29
01/02 15:00      0.00      8.97        86    499325     13.29
01/02 16:00      0.00      8.97        86    504144     13.13
01/02 17:00      0.00      8.99        87    496233     13.05
01/02 18:00      0.00      8.99        87    500990     12.49
01/02 19:00      0.00      8.98        86    507488     12.33
01/02 20:00      0.00      8.98        86    504175     12.25
01/02 21:00      0.00      8.97        86    504144     12.17
01/02 22:00      0.00      8.99        87    507488     12.17
01/02 23:00      0.00      8.99        87    493092     12.17